Location: Julian California
(33.0790°N, 116.6010°W)
Time: 12:31:55
(UTC-07:00)

Cosmos 2228 - Pass Details

Date: 14 June 2018
Orbit: 590 x 618 km, 82.5° (Epoch: 15 October)

Event Time Altitude Azimuth Distance (km) Brightness Sun altitude
Rises 21:06:20 0° 349° (N) 2,877 7.3 -12.9°
Reaches altitude 10° 21:08:34 10° 346° (NNW) 1,973 6.5 -13.3°
Maximum altitude 21:12:53 63° 266° (W) 690 3.5 -14.0°
Drops below altitude 10° 21:17:11 10° 186° (S) 1,969 5.3 -14.7°
Enters shadow 21:17:26 - 185° (S) 2,068 5.4 -14.7°
